Flag for Colombia Weather past 2 weeks in Cartagena, Colombia

Now
81 °F

Clear.


Feels Like: 85 °F
Forecast: 77 / 87 °F
Wind: 7 mph from Northeast

Location: Cartagena / Rafael Nunez

Current Time: Apr 1, 2015 at 11:50:00 PM

Latest Report: Apr 1, 2015 at 11:00 PM


Visibility: 10 mi

Pressure: 29.86 "Hg

Humidity: 79%

Dew point: 73 °F

Location of CartagenaLocation

Historic Weather in Cartagena — Graph

°F

Cartagena temperature yesterday

Maximum temperature yesterday: 90 °F (at 2:00 PM)
Minimum temperature yesterday: 79 °F (at 12:00 AM)
Average temperature yesterday: 83 °F

Past Weeks' High & Low Weather Summary

 TemperatureHumidityPressure
High91 °F (Mar 21, 11:00 AM)89% (Mar 18, 5:00 AM)30.37 "Hg (Mar 18, 5:00 AM)
Low59 °F (Mar 28, 6:00 PM)52% (Mar 21, 11:00 AM)26.72 "Hg (Mar 27, 12:00 AM)
Average81 °F79%29.86 "Hg
* Reported Mar 17 10:00 PM — Apr 1 10:00 PM, Cartagena, Weather by CustomWeather, © 2015

Note: Actual official high and low records may vary slightly from our data, if they occured in-between our weather recording intervals... More about our weather records

Advertising

Cartagena weather history for previous 24 hours

 ConditionsComfort  
Time TempWeatherWind HumidityBarometerVisibility
10:00 PM
Wed, Apr 1
81 °FWarm.8 mph79%29.84 "HgN/A
9:00 PM81 °FClear.13 mph79%29.82 "Hg10 mi
8:00 PM81 °FClear.9 mph79%29.81 "Hg10 mi
7:00 PM82 °FWarm.14 mph79%29.79 "HgN/A
6:00 PM82 °FPassing clouds.16 mph74%29.77 "HgN/A
5:00 PM86 °FPassing clouds.14 mph66%29.75 "HgN/A
4:00 PM88 °FPassing clouds.17 mph62%29.75 "HgN/A
3:00 PM90 °FPassing clouds.17 mph63%29.76 "HgN/A
2:00 PM90 °FPassing clouds.16 mph63%29.78 "HgN/A
1:00 PM88 °FPassing clouds.15 mph70%29.82 "HgN/A
12:00 PM88 °FPassing clouds.14 mph66%29.85 "HgN/A
11:00 AM88 °FPassing clouds.10 mph66%29.85 "HgN/A
9:00 AM84 °FPassing clouds.8 mph70%29.87 "HgN/A
8:00 AM81 °FPassing clouds.6 mph79%29.85 "HgN/A
7:00 AM79 °FPassing clouds.5 mph89%29.84 "Hg5 mi
6:00 AM79 °FBroken clouds.2 mph84%29.81 "HgN/A
5:00 AM79 °FPassing clouds.5 mph84%29.80 "HgN/A
4:00 AM79 °FClear.7 mph89%29.79 "Hg10 mi
3:00 AM79 °FClear.6 mph84%29.81 "Hg10 mi
2:00 AM79 °FClear.10 mph84%29.83 "Hg10 mi
1:00 AM79 °FClear.12 mph84%29.83 "Hg10 mi
12:00 AM79 °FClear.12 mph84%29.85 "Hg10 mi
11:00 PM
Tue, Mar 31
79 °FClear.10 mph84%29.86 "Hg10 mi
Weather by CustomWeather, © 2015

See weather overviewHow to use our weather pages